{"data":{"norad_id":61018,"intl_designator":"2024-159H","name":"GEESAT-3 08","alt_names":[],"object_type":"PAYLOAD","status":"ACTIVE","operator":null,"country":"PRC","launch_date":"2024-09-05","launch_site_code":"TAISC","launch_vehicle":null,"mission":null,"orbit_class":"UNKNOWN","rcs_meters":null,"size_class":null,"mass_kg":null,"dimensions":null,"purposes":[],"wikipedia_slug":null,"has_3d_model":false,"image_url":null,"decayed_at":null,"tle_current":{"epoch":"2026-09-22T20:48:13.935744Z","epoch_age_seconds":87256,"freshness":"FRESH","line1":"1 61018U 24159H   26265.86682796  .00001046  00000+0  14948-3 0  9999","line2":"2 61018  50.0070 349.9679 0027064 109.5482 250.8383 14.84507786111287","mean_motion":14.84507786,"eccentricity":0.0027064,"inclination_deg":50.007,"raan_deg":349.9679,"arg_perigee_deg":109.5482,"mean_anomaly_deg":250.8383,"bstar":0.00014948,"rev_number":11128,"period_min":97.001848934728,"perigee_km":596.20468160496,"apogee_km":634.05784405801,"semimajor_km":6993.2682628315,"source":"CELESTRAK","updated_at":"2026-09-23T09:00:20.800796Z"}}}